map of THE home
Great Circle Mapper logo
THE - Airport
Location
City:  Teresina, Piauí, Brazil
Name:Senador Petrônio Portella
ICAO / IATA:SBTE / THE

Details
Type:Airport (Aerodrome, Airfield)
Use:Public/Civil
Latitude:5°03'36"S (-5.059941)
Longitude:42°49'25"W (-42.823477)
Datum:WGS 1984
Elevation:219 ft (67 m)
Variation:21.54°W (WMM2015 magnetic declination)
-0.00° annual change
Runways:1
Longest:7218 × 148 ft (2200 × 45 m), paved

Time
Time Zone:UTC-3
Local Time:

Weather
METAR:SBTE 192000Z 20004KT 9999 FEW030 31/26 Q1008
TAF:SBTE 191600Z 1918/2006 18006KT 9999 SCT030 TX33/1919Z TN25/2005Z
BECMG 1900/1902 33004KT
RMK PEA

Related Locations
Nearby:
Farthest:ROR: 12200 mi / 19634 km
Babelthuap Island [Babelthuap/Koror Airport], PW

Find:

   beyond  
but within

Other Information
Maps:
NOTAMs:
Links:
Sources:

  
flag of Brazil
flag of Piauí
  

Sectional Chart

Flight Planning
at skyvector.com

Satellite Image

Google Maps Satellite View

 

Copyright © 2004-2015 Karl L. Swartz. All rights reserved.
The Great Circle Mapper name and logo are trademarks of the Great Circle Mapper.
All other trademarks mentioned herein belong to their respective owners.
Please see credits for attibutions and further copyright information.

  Follow gcmap on Facebook Follow gcmap on Twitter Follow gcmap on Google+

hCard Microformat

Geo Microformat